Weather in Ciadir-Lunga

Moldova     46˚03′08″N   28˚50′02″E
temp.,
°C
wind,
m/s
gust,
m/s
humid.,
%
clouds,
%
prec.,
mm/h
press.,
hPa
HPBL,
m
3 december, thu
thu323:00+3˚ne4794100 0.1 1024311
02:00+3˚ne2593100 0.3 1023283
05:00+2˚ne3594100 0.0 1024197
08:00+1˚ne239495 0.0 1023103
11:00+4˚ene228795 0.0 1023255
14:00+5˚ene228497 0.0 1022330
17:00+5˚e129186 0.0 102141
20:00+4˚sse239486 0.0 102150
4 december, fri
fri423:00+2˚sse339512 0.0 102167
02:00+2˚sse33956 0.0 102167
05:00+2˚se339520 0.0 101949
08:00+3˚ese359310 0.0 102089
11:00+8˚ese378828 0.0 1020312
14:00+11˚se598554 0.3 1018594
17:00+8˚ese5119512 0.0 1019274
20:00+9˚se5109643 0.1 1019383
5 december, sat
sat523:00+9˚ese51195100 0.1 1020387
02:00+9˚ese599698 0.1 1020368
05:00+9˚ese51096100 0.0 1020354
08:00+8˚e6109499 0.0 1021375
11:00+9˚ese7108488 0.0 1022540
14:00+11˚ese7107568 0.0 1022598
17:00+7˚e7118628 0.0 1023497
20:00+6˚e7108764 0.0 1024538
6 december, sun
sun623:00+6˚ese71086100 0.0 1025613
02:00+5˚e6986100 0.0 1025633
05:00+5˚e6983100 0.0 1025715
08:00+5˚e6880100 0.0 1026729
11:00+5˚e6874100 0.0 1026781
14:00+5˚ene6974100 0.0 1025712
17:00+3˚ene71175100 0.0 1025693
20:00+4˚e71077100 0.0 1025966
7 december, mon
mon723:00+4˚e71180100 0.1 1025889
02:00+4˚e71078100 0.1 1025873
05:00+4˚e71178100 0.1 1024950
08:00+4˚e71179100 0.1 1024968
11:00+4˚e71078100 0.1 1025885
14:00+3˚ene7981100 0.1 1023643
17:00+2˚ene81277100 0.1 1023653
20:00+2˚ene81384100 0.1 1023578